Zurück zum Katalog

THORAD AGENA D DEB

AktivPO
NORAD 4921·DEBRIS·🇺🇸 United States

Gestartet Apr 8, 1970 von Vandenberg Space Force Base

Loading…

Nächste Überflüge

TLE

Source: Space-Track
1  4921U 70025FT  26221.44080554  .00003334  00000-0  76981-3 0  9990
2  4921  99.7401  44.5771 0035528 285.0100  74.7161 14.55706773883331

Verfolge THORAD AGENA D DEB in Echtzeit mit AllMySat

Download on the App Store